Flag for French Polynesia Weather past 2 weeks in Gambier Islands, French Polynesia

Now
80 °F

Warm.


Feels Like: 84 °F
Forecast: 79 / 84 °F
Wind: 7 mph from Northeast

Location: Rikitea

Current Time: Mar 1, 2015 at 4:52:27 PM

Latest Report: Mar 1, 2015 at 4:00 PM


Visibility: N/A

Pressure: 29.99 "Hg

Humidity: 78%

Dew point: 72 °F

Location of Gambier IslandsLocation

Historic Weather in Gambier Islands — Graph

°F

Gambier Islands temperature yesterday

Maximum temperature yesterday: 76 °F (at 5:00 PM)
Minimum temperature yesterday: 71 °F (at 12:00 AM)
Average temperature yesterday: 74 °F

Past Weeks' High & Low Weather Summary

 TemperatureHumidityPressure
High85 °F (Feb 19, 12:00 PM)96% (Feb 28, 1:00 AM)30.19 "Hg (Feb 28, 1:00 AM)
Low69 °F (Feb 26, 9:00 PM)65% (Feb 23, 1:00 PM)29.85 "Hg (Feb 24, 4:00 PM)
Average78 °F81%30.04 "Hg
* Reported Feb 14 3:00 PM — Mar 1 3:00 PM, Gambier Islands, Weather by CustomWeather, © 2015

Note: Actual official high and low records may vary slightly from our data, if they occured in-between our weather recording intervals... More about our weather records

Advertising

Gambier Islands weather history for previous 24 hours

 ConditionsComfort  
Time TempWeatherWind HumidityBarometerVisibility
3:00 PM
Sun, Mar 1
81 °FPartly sunny.7 mph75%29.99 "Hg25 mi
2:00 PM82 °FWarm.8 mph73%30.01 "HgN/A
1:00 PM83 °FWarm.6 mph76%30.02 "HgN/A
11:00 AM82 °FPassing clouds.7 mph74%30.06 "Hg25 mi
10:00 AM82 °FPassing clouds.6 mph74%30.06 "Hg25 mi
9:00 AM80 °FPassing clouds.7 mph80%30.07 "Hg22 mi
8:00 AM78 °FWarm.5 mph81%30.06 "HgN/A
7:00 AM76 °FMild.6 mph88%30.04 "HgN/A
6:00 AM77 °FMild.5 mph84%30.01 "HgN/A
5:00 AM76 °FMild.5 mph84%30.00 "HgN/A
4:00 AM76 °FMild.3 mph85%29.98 "HgN/A
3:00 AM76 °FMild.3 mph85%29.98 "HgN/A
2:00 AM76 °FMild.3 mph84%29.98 "HgN/A
1:00 AM76 °FMild.5 mph84%29.99 "HgN/A
12:00 AM76 °FMild.3 mph85%30.01 "HgN/A
11:00 PM
Sat, Feb 28
76 °FMild.5 mph85%30.02 "HgN/A
10:00 PM76 °FMild.3 mph85%30.03 "HgN/A
9:00 PM76 °FMild.5 mph82%30.03 "HgN/A
8:00 PM76 °FMild.3 mph84%30.02 "HgN/A
7:00 PM75 °FMild.3 mph81%30.01 "HgN/A
5:00 PM76 °FOvercast.5 mph81%29.99 "Hg16 mi
4:00 PM76 °FOvercast.3 mph82%29.98 "Hg16 mi
Weather by CustomWeather, © 2015

See weather overviewHow to use our weather pages